Regional Weather Roundup
Issued by NWS

Home | Current Version | Previous Version | Graphics & Text | Print | Product List | Glossary On
Versions: 1 2 3 4 5 6 7 8 9 10 11 12 13 14 15 16 17 18 19 20 21 22 23 24 25 26 27 28 29 30 31 32 33 34 35 36 37 38 39 40 41 42 43 44 45 46 47 48 49 50
196
ASUS43 KLOT 051708
RWRIL

ILLINOIS REGIONAL WEATHER ROUNDUP
NATIONAL WEATHER SERVICE CHICAGO/ROMEOVILLE IL
1200 PM CDT THU MAY 05 2016

NOTE: "FAIR" INDICATES FEW OR NO CLOUDS BELOW 12,000 FEET WITH NO
SIGNIFICANT WEATHER AND/OR OBSTRUCTIONS TO VISIBILITY.

* THESE STATIONS ARE NOT UNDER NWS QUALITY CONTROL. THEY ALSO MAY NOT
  REPORT WEATHER SUCH AS PRECIPITATION OR FOG.

ILZ001-002-007-009-015-016-024-051800-
NORTHWEST ILLINOIS

CITY           SKY/WX    TMP DP  RH WIND       PRES   REMARKS
MOLINE         SUNNY     59  38  45 NE6       30.06F
STERLING*      SUNNY     57  43  58 N8        30.06S
SAVANNA*       SUNNY     58  38  48 N7        30.06S
$$

ILZ003-004-008-010-011-017-018-051800-
NORTH CENTRAL ILLINOIS

CITY           SKY/WX    TMP DP  RH WIND       PRES   REMARKS
ROCKFORD       SUNNY     59  40  49 N10       30.06S
FREEPORT*      SUNNY     55  39  54 N9        30.06F
ROCHELLE*      SUNNY     57  43  59 N9        30.04S
DE KALB*       SUNNY     56  46  67 N10       30.03S
$$

ILZ005-006-012>014-019>023-051800-
NORTHEAST ILLINOIS

CITY           SKY/WX    TMP DP  RH WIND       PRES   REMARKS
CHICAGO-OHARE  SUNNY     58  42  55 N12       30.01S
CHICAGO-MIDWAY SUNNY     56  41  57 N12       30.02R
AURORA         SUNNY     58  44  60 N12G20    30.02S
LANSING*       SUNNY     48  40  74 N13       30.02R
JOLIET*        SUNNY     59  44  56 N13       30.00F
WAUKEGAN       SUNNY     55  40  56 N10G22    30.01F
DUPAGE AIRPORT SUNNY     57  41  55 N6        30.01S
KANKAKEE*      SUNNY     58  44  58 N13       30.00S
WHEELING       SUNNY     57  42  57 NW10      30.03S
MORRIS*        SUNNY     59  44  57 N3        30.00S
ROMEOVILLE*    SUNNY     57  42  58 NE13      30.01S
NORTHERLY ISL    N/A     47  40  76 N15         N/A
NORTHERLY ISL    N/A     47  40  76 N15         N/A
$$

LMZ740>746-051800-
SOUTHERN LAKE MICHIGAN

STATION/POSITION SKY/WX   TEMP    WIND        PRES    VSBY  WAVE
                          AIR SEA DIR/SP/G                  HT/PER
                          (F)     (DEG/KT/KT) (MB)    (MI)  (FT/S)
SOUTHERN BUOY              40 40  360/ 16/ 17 1016.0R         4/ 6
WILMETTE HARBOR            43 43   30/ 14/ 17   N/A           6/ 7
HARRISON CRIB              43     350/ 21/ 23   N/A
BURNHAM HARBOR             47     340/ 12/ 18   N/A
CALUMET HARBOR             45     340/ 15/ 20 1016.1R
BURNS HARBOR               43     360/ 12/ 17 1016.9R
MICHIGAN CITY              42     340/ 14/ 15   N/A
ST. JOSEPH                 43 47                N/A           4/ 7
$$

ILZ025>027-034>036-040-047-049-050-058-095>099-051800-
WEST-CENTRAL ILLINOIS

CITY           SKY/WX    TMP DP  RH WIND       PRES   REMARKS
QUINCY         SUNNY     58  41  53 N9        30.07S
GALESBURG*     SUNNY     58  40  51 N9        30.06S
MACOMB*        SUNNY     58  39  49 N6        30.08F
JACKSONVILLE*  SUNNY     59  40  50 N9G17     30.05S
PITTSFIELD*    SUNNY     59  41  52 N10       30.07S
$$

ILZ028>032-037-038-041>044-048-051>054-059>061-051800-
CENTRAL ILLINOIS

CITY           SKY/WX    TMP DP  RH WIND       PRES   REMARKS
PONTIAC        SUNNY     59  46  62 N13G21    30.02R
BLOOMINGTON    MOSUNNY   57  47  69 N16       30.02S
DECATUR        MOSUNNY   59  46  62 N15G23    30.01R
PEORIA         SUNNY     57  42  57 N9G18     30.04S
LACON*         SUNNY     56  43  61 N6        30.04S
LINCOLN*       SUNNY     58  47  65 N8G17     30.02F
SPRINGFIELD    SUNNY     59  43  55 N14       30.04S
TAYLORVILLE    MOSUNNY   56  44  64 N14       30.02S
$$

ILZ033-039-045-046-055>057-062-063-051800-
EAST-CENTRAL ILLINOIS

CITY           SKY/WX    TMP DP  RH WIND       PRES   REMARKS
CHAMPAIGN      SUNNY     60  45  57 N15       29.98S
RANTOUL*       SUNNY     60  46  60 N16G24    29.98S
MATTOON        PTSUNNY   56  45  66 N15       29.98S
PARIS*         MOSUNNY   55  47  74 N6        29.98S
$$

ILZ079-100>102-051800-
SOUTHWEST ILLINOIS

CITY           SKY/WX    TMP DP  RH WIND       PRES   REMARKS
ALTON          PTSUNNY   57  41  54 N12       30.04R
BELLEVILLE     PTSUNNY   59  44  58 N9        30.02R
CAHOKIA*       SUNNY     60  41  49 N14G25    30.04R
SPARTA*        PTSUNNY   56  43  62 N14G21    30.03S
$$

ILZ064>066-069>071-074>076-080>082-084>086-088>090-092>094-051800-
SOUTH-CENTRAL ILLINOIS

CITY           SKY/WX    TMP DP  RH WIND       PRES   REMARKS
CARBONDALE     MOSUNNY   56  42  59 N14G21    30.00R
CAIRO*         MOSUNNY   62  42  47 N14G24    29.97R
EFFINGHAM*     CLOUDY    53  46  76 NW10      30.02R
MARION         PTSUNNY   55  43  62 N14G23    30.00R
MT. VERNON     CLOUDY    55  43  62 N6        30.01R
CENTRALIA*     PTSUNNY   55  45  70 NW13      30.00S
SALEM*         MOSUNNY   56  44  64 NW13      30.00S
METROPOLIS*    PTSUNNY   57  45  62 N14G20    29.98R
$$

ILZ067-068-072-073-078-083-087-091-051800-
SOUTHEAST ILLINOIS

CITY           SKY/WX    TMP DP  RH WIND       PRES   REMARKS
LAWRENCEVILLE  CLOUDY    53  44  71 N18       29.97R
FLORA*         CLOUDY    56  45  65 N15       30.00R
FAIRFIELD*     PTSUNNY   55  44  66 N13       29.99R
HARRISBURG*    CLOUDY    52  41  66 N9G18     30.00R
ROBINSON*      PTSUNNY   52  46  79 N14       29.98R
CARMI*         CLOUDY    53  43  69 N14       29.97S
$$

ABBREVIATIONS USED IN REMARKS
   TC - TEMPERATURE IN CELSIUS
  WCI - WIND CHILL INDEX
   HX - HEAT INDEX
  VSB - VISIBILITY
$$





USA.gov is the U.S. government's official web portal to all federal, state and local government web resources and services.